RH
20 21 18 14 14 15 12 9 10 12 9 5 5 5 4 4 3 3 4 4 4 4 4 5 5 5 5 5 5 5 5 6 6 8 10 13 15 12 11 14 20 27 32 33 35 40 49 65 81 90 94 102 106 103 101 102 100 101 102 103 106 101 91 91 99 104 106 103 104 108 107 99 95 101 106 94 86 93 91 87 101 105 86 73 70 68 81
21 22 19 15 15 16 13 10 12 12 8 5 5 5 4 4 3 4 4 4 5 5 6 6 6 6 6 6 6 6 6 7 7 8 11 14 17 15 14 16 22 30 37 42 42 44 53 66 77 90 99 104 105 102 102 101 99 102 103 101 105 102 91 94 105 104 98 93 91 91 89 86 91 104 104 88 81 90 92 86 94 105 95 81 76 68 73
22 24 20 15 16 17 13 11 13 13 8 6 5 5 5 4 3 4 4 4 5 5 6 7 6 7 8 8 8 8 8 9 9 11 13 18 21 20 17 18 25 34 42 49 51 50 58 68 79 92 102 106 106 103 102 102 100 103 101 99 106 103 91 96 107 104 98 93 88 85 84 86 96 104 100 93 89 87 87 84 85 97 100 88 81 74 70
23 25 21 17 16 17 14 12 15 14 8 6 6 5 5 5 4 4 4 4 5 5 6 6 7 8 8 9 9 9 10 12 13 15 18 22 26 25 20 20 28 38 47 56 61 61 64 74 85 93 99 105 106 101 101 103 104 102 97 99 106 97 86 96 108 106 102 102 103 106 107 106 107 105 101 101 101 89 81 82 82 91 100 93 84 77 67
24 27 23 18 18 18 14 12 17 17 9 6 7 5 5 6 4 4 4 4 5 5 6 6 7 8 9 9 10 10 11 13 14 18 21 25 28 26 23 24 32 42 52 63 73 76 79 86 91 96 101 106 105 103 104 104 103 103 102 106 105 91 88 102 110 106 100 98 103 108 109 110 109 107 106 106 107 97 85 86 88 89 96 99 92 85 74
25 28 23 19 19 19 15 12 19 21 12 7 7 6 6 6 5 5 4 4 5 5 6 7 7 8 9 9 10 10 11 12 14 18 21 23 25 25 24 27 35 48 58 67 76 84 88 91 92 97 104 107 104 104 105 103 104 106 108 108 102 92 96 107 109 106 101 98 102 103 99 103 105 106 107 105 104 103 96 96 96 89 95 107 100 88 81
24 28 24 19 20 21 17 14 20 23 13 7 8 7 6 7 7 7 6 5 6 6 6 7 7 8 9 10 11 11 11 12 13 15 19 20 20 22 25 29 36 48 60 68 74 82 88 91 93 97 102 104 106 107 107 108 110 110 108 105 101 99 103 108 107 105 101 100 104 101 95 98 101 103 106 105 105 106 103 105 104 93 95 107 102 91 86
25 29 24 20 20 22 19 15 21 24 14 8 9 8 8 8 7 9 9 7 7 7 7 8 8 9 10 10 12 12 12 13 14 14 16 17 18 19 24 30 38 46 58 68 75 83 93 98 100 103 103 103 106 108 108 109 107 105 105 103 102 104 104 105 105 102 99 98 96 96 100 103 104 104 103 102 103 104 102 104 105 101 101 104 103 100 97
25 29 25 21 21 23 20 15 20 24 16 9 10 10 10 10 9 10 11 10 9 9 9 9 10 10 11 11 12 13 13 14 14 15 16 18 19 21 23 29 38 44 52 62 70 80 92 96 96 102 105 105 106 104 102 100 97 98 105 106 105 105 103 103 104 100 98 98 98 102 109 109 106 104 100 96 96 95 92 90 93 100 102 99 97 100 104
25 29 26 22 22 24 21 15 18 25 20 12 11 12 13 14 14 13 13 13 14 13 12 13 13 12 13 14 14 15 15 15 16 18 20 21 22 24 26 29 35 42 49 57 62 69 79 83 82 89 99 101 101 97 91 90 91 97 105 107 104 102 102 103 102 99 99 103 104 105 109 109 106 104 103 102 100 98 93 86 86 92 90 84 89 99 106
25 30 28 22 22 25 23 16 17 26 24 15 12 15 17 18 20 20 19 19 20 20 19 19 19 18 18 17 17 18 18 19 20 22 23 25 27 27 30 32 34 38 44 50 55 61 68 71 70 76 84 86 85 84 81 85 93 100 106 108 105 102 103 102 100 101 104 106 105 101 102 107 107 105 107 108 105 105 102 97 97 97 86 78 85 99 106
25 31 29 23 22 26 25 18 17 26 29 19 13 19 22 24 26 29 30 31 30 30 29 27 26 25 24 24 23 22 23 24 24 26 27 29 31 32 33 36 36 38 43 48 54 60 65 68 70 73 76 76 72 74 81 91 99 104 107 107 104 102 101 101 103 107 107 104 100 96 98 106 108 105 107 107 104 106 107 105 105 103 92 84 85 93 100
25 31 30 24 23 27 27 20 16 26 32 23 15 20 27 32 36 38 41 44 44 44 44 41 39 35 32 32 31 29 28 29 29 31 31 32 34 36 36 38 39 42 47 51 55 60 64 68 74 78 81 82 79 80 91 101 105 109 110 108 106 106 105 105 107 106 101 98 95 90 93 104 109 106 106 106 105 106 105 105 105 102 95 92 93 97 101
25 32 31 25 22 27 30 24 17 24 34 29 19 20 28 37 45 49 49 52 55 55 56 54 54 52 46 43 42 40 37 35 34 35 35 35 36 37 37 38 41 44 49 52 54 57 59 61 67 74 80 85 87 89 94 99 101 105 107 107 108 106 100 98 98 95 96 99 95 89 93 102 107 108 107 105 105 105 104 104 105 102 99 101 103 103 105
25 33 33 26 22 26 31 28 19 22 35 34 22 21 30 39 50 57 57 59 61 61 61 60 60 61 59 54 51 50 47 44 43 42 42 41 41 41 42 42 43 44 46 48 48 49 51 52 54 59 62 65 68 70 73 77 79 82 85 86 87 85 82 84 89 93 95 99 98 96 99 103 105 108 108 105 105 106 104 104 105 103 102 106 107 104 105
25 33 34 27 22 24 31 31 22 20 33 38 26 22 31 41 53 63 65 65 67 66 65 65 65 65 66 64 61 58 54 52 50 48 47 46 45 45 46 45 45 45 44 43 42 42 43 44 44 45 44 43 44 45 46 49 52 55 58 59 59 63 65 71 86 97 95 94 98 101 102 104 106 109 109 105 106 106 101 99 102 102 101 104 104 103 103
24 33 36 30 23 24 29 32 26 19 29 40 31 22 31 43 54 68 74 73 73 72 70 72 74 74 74 75 74 71 66 61 56 51 47 45 44 43 43 42 42 41 39 39 39 38 37 37 37 35 33 31 31 31 31 33 35 36 39 40 40 43 47 56 75 91 89 88 98 102 102 105 107 108 107 105 105 106 101 97 101 103 102 104 104 103 102
24 33 37 32 25 24 28 32 29 21 25 40 39 25 29 45 57 68 80 82 80 80 79 78 81 84 82 81 82 80 75 68 61 56 52 50 47 45 44 42 40 37 35 34 33 34 34 33 32 31 30 29 28 27 26 26 27 28 30 31 31 35 41 52 67 79 82 89 100 103 103 107 106 104 104 105 105 105 102 100 104 105 104 104 102 101 103
24 33 38 34 26 25 29 32 31 24 23 40 49 34 27 44 61 70 80 87 88 89 88 85 87 93 92 88 89 87 83 78 73 68 64 60 55 50 47 43 40 38 37 35 34 33 32 32 31 30 30 30 28 27 25 24 25 26 26 27 27 30 38 51 66 76 84 96 106 106 105 108 107 105 104 104 104 103 102 104 107 108 107 103 98 99 104
24 32 38 36 28 26 30 34 34 29 23 33 51 46 29 37 60 73 80 89 94 96 97 92 92 97 99 96 95 94 93 94 92 88 86 81 72 66 62 55 46 40 37 35 36 35 33 33 33 31 31 30 28 27 26 26 25 25 25 26 26 27 32 42 53 64 77 93 106 109 107 108 110 110 108 107 108 105 101 101 104 107 106 101 96 99 103
24 33 38 37 30 26 31 35 35 33 27 27 42 52 39 31 48 69 82 90 95 98 100 97 95 98 100 100 99 97 98 102 103 103 104 102 92 86 84 78 69 62 55 46 41 39 36 34 33 33 32 31 30 30 29 27 26 25 25 24 25 26 29 33 39 47 59 77 93 103 106 108 111 113 112 110 107 99 91 92 100 105 104 99 96 98 98
22 33 39 38 32 26 30 37 37 35 32 27 34 50 50 33 33 53 75 89 95 96 96 97 96 97 98 99 101 101 98 99 102 104 106 107 103 100 99 96 92 90 84 73 63 55 47 40 37 38 37 33 31 31 29 27 27 26 26 26 26 27 28 31 35 39 44 56 74 88 93 93 95 98 99 96 90 84 84 92 102 105 101 98 98 97 94
21 31 39 40 35 27 29 37 39 36 35 32 32 46 56 44 30 37 58 77 88 91 90 90 92 96 98 99 103 104 100 98 102 103 103 104 106 106 105 99 94 93 93 93 86 73 61 55 53 52 50 45 40 35 31 32 32 30 30 28 26 27 29 29 31 32 35 45 58 64 63 64 71 78 80 82 85 87 89 95 102 105 103 102 103 102 98
20 29 39 40 36 30 29 36 41 39 37 34 33 42 56 55 42 33 39 57 73 81 86 88 89 92 96 97 101 105 103 101 103 104 103 104 105 108 107 99 94 95 99 101 97 87 79 77 74 71 72 72 68 59 51 50 48 44 40 37 36 43 49 44 39 39 42 46 50 49 52 63 77 86 88 91 96 98 97 98 101 104 104 104 105 105 103
19 27 37 41 38 32 30 35 41 43 40 36 37 42 51 60 57 42 34 43 59 70 82 91 93 92 93 94 97 102 104 104 104 103 104 105 105 106 107 102 100 103 105 103 99 98 98 95 89 86 89 93 92 86 80 78 77 75 74 73 75 84 88 82 76 75 74 73 72 71 75 85 92 98 101 101 101 101 101 103 105 105 105 105 105 105 104
19 26 35 41 39 33 31 35 41 47 44 39 41 43 46 60 71 61 43 43 51 58 68 84 93 95 96 97 98 98 99 100 101 102 105 107 106 105 105 102 101 104 105 103 100 101 104 103 97 94 92 90 93 98 101 101 100 99 101 103 103 104 105 104 104 104 101 99 96 92 91 94 96 99 102 101 100 100 99 101 105 105 104 104 103 102 101
19 25 33 40 40 34 33 35 42 49 48 42 43 44 45 59 77 77 63 54 54 54 57 66 77 86 92 98 104 105 102 98 95 94 95 98 99 98 99 100 98 97 98 99 97 96 98 100 101 98 93 90 92 99 106 109 104 99 101 107 108 107 107 107 107 106 106 106 105 101 100 103 104 104 103 101 99 97 95 96 99 100 100 101 100 99 97
18 23 32 40 40 35 33 35 41 50 51 46 45 46 47 55 68 79 81 74 68 65 62 58 61 69 75 81 90 97 99 97 92 90 90 94 95 94 93 91 88 86 87 90 92 93 94 96 97 97 98 99 99 100 106 109 105 99 100 106 109 108 108 108 107 107 109 110 110 108 107 108 108 106 105 103 101 100 99 99 98 97 96 96 94 93 92
18 22 31 39 40 36 34 35 41 49 54 51 46 46 50 54 58 69 82 87 85 85 82 74 69 71 73 74 75 76 79 81 84 85 88 91 93 91 88 83 77 76 79 81 85 87 86 86 88 91 95 100 104 108 110 108 106 106 107 107 108 107 106 108 107 105 106 107 108 109 109 109 108 107 107 105 103 100 98 96 95 93 91 91 92 93 93
18 20 28 38 41 37 35 36 40 49 55 56 50 47 51 56 58 62 72 85 96 102 101 97 92 87 85 85 81 76 74 74 75 77 78 79 80 78 76 73 70 71 75 78 81 83 81 79 80 82 85 91 97 103 103 100 103 110 109 107 107 107 105 107 106 103 102 103 103 104 107 105 101 99 100 99 96 93 91 92 95 96 94 93 94 94 95
19 20 26 36 41 38 35 36 40 47 55 58 53 48 51 57 61 63 68 81 99 107 105 105 106 100 95 96 95 92 91 89 86 84 82 81 81 76 70 65 63 63 67 70 73 76 78 79 81 83 86 89 92 95 95 96 103 107 103 97 96 95 93 95 96 94 96 97 96 98 100 97 92 91 92 91 92 94 96 99 102 103 103 101 100 101 102
19 20 24 34 41 39 35 35 39 45 54 59 54 49 50 55 61 65 68 78 94 103 103 107 110 105 100 102 102 100 103 106 104 99 94 93 95 91 81 71 65 63 62 60 62 65 68 71 75 79 82 85 88 92 95 98 102 104 100 95 94 91 88 89 88 85 87 89 90 90 86 81 80 84 85 85 88 92 96 100 102 102 100 100 102 102 99
19 20 23 32 40 40 36 35 38 44 53 61 60 53 50 54 59 64 68 75 86 95 101 108 110 105 102 104 102 100 106 114 116 110 103 101 103 102 94 85 80 76 68 60 57 58 58 59 62 65 67 70 74 79 83 84 86 87 85 84 84 83 81 80 77 75 76 77 78 76 71 66 69 74 77 79 80 82 85 89 90 87 85 86 88 87 82
20 19 23 31 39 41 37 35 39 44 50 58 62 56 51 53 56 59 65 72 78 84 92 100 105 105 104 103 102 104 110 116 117 114 109 105 104 105 104 102 102 98 87 75 68 64 60 59 58 57 57 60 63 66 68 66 65 65 65 65 66 68 69 70 70 70 71 73 72 70 68 68 68 70 72 73 74 74 75 75 74 73 72 72 71 70 68
20 19 23 30 37 41 38 35 38 44 48 55 62 60 53 52 54 56 62 69 73 80 88 95 101 105 102 99 101 107 111 111 110 110 109 106 105 104 105 108 112 110 101 94 88 81 74 71 67 63 63 66 68 69 68 63 61 64 69 72 74 74 75 74 73 72 71 69 68 66 66 66 66 66 66 66 66 66 67 67 67 68 68 67 66 66 67
20 19 22 29 35 40 39 34 36 44 47 52 62 65 58 53 53 56 61 67 74 82 89 95 100 100 98 99 104 106 106 106 105 104 104 106 106 103 100 104 110 110 105 104 104 99 93 89 86 85 86 87 88 88 84 78 75 79 83 85 83 80 77 73 69 67 67 67 69 71 72 73 74 74 74 74 74 74 75 75 75 74 73 73 74 75 76
21 19 21 27 34 39 39 34 35 43 47 51 60 67 64 57 54 56 59 66 74 81 86 94 100 100 99 106 110 106 102 103 101 96 96 101 103 102 99 101 104 104 104 108 112 111 107 103 100 101 104 106 106 105 100 95 92 90 89 86 82 77 74 70 67 66 69 73 79 84 87 89 89 88 87 86 86 86 86 85 83 81 78 78 80 82 84
21 20 21 27 34 39 39 35 35 43 48 50 57 66 67 61 57 57 58 62 71 78 81 89 98 102 105 111 111 105 103 103 97 92 94 99 101 101 101 101 101 101 103 106 108 108 108 106 104 104 106 108 111 112 108 103 99 94 89 85 80 75 71 68 66 66 70 76 85 91 94 96 95 92 91 91 90 90 90 89 86 83 81 84 89 94 96
21 21 21 25 32 38 39 36 35 41 47 49 54 65 71 65 59 58 59 60 67 75 78 83 92 99 105 110 108 103 103 104 101 101 103 102 100 100 102 104 103 101 101 103 104 103 104 104 104 104 105 106 110 113 110 103 99 94 89 84 79 74 70 67 68 73 78 83 88 91 91 92 93 93 93 93 94 94 96 96 95 93 92 96 101 104 102
22 22 21 24 30 37 39 37 34 38 45 49 52 63 74 72 63 59 60 60 64 71 74 79 85 91 98 103 103 100 101 105 107 108 109 106 102 100 102 108 110 105 102 103 103 101 103 104 105 107 110 110 110 110 106 100 95 92 89 85 80 77 75 75 77 81 85 88 89 88 88 90 94 98 100 100 99 100 102 103 105 105 106 108 112 110 105
22 23 22 22 28 35 39 37 33 36 45 51 52 57 71 76 70 61 59 62 65 68 71 75 80 86 93 99 99 96 98 104 108 109 110 110 107 102 101 108 112 108 104 104 104 104 107 110 111 112 112 111 107 104 102 100 99 98 96 93 88 85 85 87 87 87 89 92 94 94 93 95 98 101 103 102 102 103 105 106 108 109 109 110 112 111 109
23 25 23 22 27 34 39 38 35 34 42 50 52 53 64 75 76 67 61 61 65 68 71 75 79 83 90 95 96 95 97 101 104 106 108 109 107 104 102 105 107 107 107 108 111 112 111 108 108 109 108 105 102 101 100 101 103 104 103 101 97 95 95 95 94 93 94 97 100 99 98 97 96 96 96 97 98 99 101 104 107 109 108 107 106 106 108
24 26 24 23 26 34 39 40 36 34 40 51 54 53 58 69 77 74 67 62 62 66 70 73 76 81 87 92 95 96 98 100 101 103 104 105 104 104 104 104 103 104 106 108 111 113 110 104 102 103 104 103 101 99 97 97 98 98 99 98 97 96 96 95 95 96 96 97 98 97 96 95 93 91 92 93 94 94 94 94 96 98 101 102 103 103 104
25 27 25 22 25 33 40 42 38 36 41 51 56 54 55 62 72 76 74 68 64 64 67 69 74 80 87 92 97 98 99 100 100 100 101 102 102 103 105 105 102 101 102 103 103 104 103 100 98 98 99 101 100 96 95 95 95 95 95 95 95 95 95 94 93 93 92 91 91 91 90 90 89 89 89 91 93 94 93 91 89 88 89 91 93 96 97
26 28 25 23 25 32 40 43 41 38 41 49 56 56 53 52 58 70 77 74 66 63 65 67 71 77 84 90 96 99 102 104 103 101 100 101 101 102 103 105 103 101 100 100 98 96 94 93 93 93 95 97 97 95 93 93 94 94 96 97 97 96 96 96 95 95 93 92 91 91 90 90 89 89 89 89 91 94 97 97 96 93 90 88 87 88 89
26 29 27 24 26 33 41 44 43 40 41 47 53 55 50 45 50 65 78 80 72 65 64 65 67 72 79 85 92 97 101 104 105 104 103 103 104 103 102 103 103 102 100 98 96 95 93 91 89 90 92 94 96 96 94 92 92 93 94 95 96 96 96 96 97 98 98 98 98 98 97 96 94 92 92 92 92 93 95 97 99 100 101 100 99 95 92
27 29 27 25 27 34 41 44 43 40 38 41 49 55 54 49 48 57 71 81 81 73 66 63 64 68 74 79 85 92 97 100 102 104 105 106 107 106 104 102 101 100 98 96 95 95 94 93 92 91 92 94 96 98 98 96 95 94 94 93 94 94 94 95 95 96 96 97 98 98 98 97 97 96 96 95 94 92 91 91 92 95 98 102 104 104 103
27 30 29 26 28 34 39 42 42 40 35 37 47 56 57 52 47 47 58 74 85 83 73 65 63 66 70 74 80 87 93 96 98 103 106 107 109 109 107 105 103 101 98 97 97 96 95 97 97 97 97 98 98 99 100 100 99 99 98 97 96 95 93 93 93 92 92 93 93 93 94 94 94 95 96 96 96 95 94 91 90 90 90 92 94 97 100
27 30 30 27 27 33 39 43 44 42 38 39 47 55 57 54 50 46 48 61 79 89 85 75 67 65 67 70 75 82 89 93 97 102 105 107 109 112 111 109 108 105 103 101 101 100 99 100 101 101 102 102 101 101 101 101 100 101 101 100 98 97 95 94 92 91 91 91 92 93 94 94 94 95 96 96 96 96 95 94 93 93 92 90 89 89 90
27 31 30 27 27 33 41 45 46 45 42 40 44 52 58 58 54 49 46 52 67 84 92 88 78 69 65 67 71 76 82 89 95 101 105 106 108 110 112 112 111 109 107 106 104 103 103 102 103 103 104 104 103 103 102 100 99 98 97 96 96 95 95 94 93 92 91 91 91 92 93 95 95 95 96 96 95 95 94 93 93 92 92 92 91 90 89
27 31 30 28 29 35 42 46 47 46 43 38 39 48 58 61 58 53 49 48 54 68 84 94 91 81 72 69 69 71 75 83 91 97 102 105 106 106 109 111 112 111 110 109 107 106 106 105 104 104 105 106 106 106 105 103 102 100 98 96 95 94 93 92 91 89 87 86 85 85 85 85 86 86 87 87 87 87 87 86 86 85 85 85 86 86 86
28 31 30 29 31 35 41 47 48 47 43 40 39 44 53 59 59 55 50 47 48 55 68 84 94 93 85 77 72 70 72 78 84 90 95 100 103 104 105 107 109 111 112 111 110 110 109 108 107 106 106 106 105 105 104 103 102 100 98 96 94 92 90 88 85 83 81 79 77 75 74 73 72 71 72 71 71 72 72 72 72 72 72 73 74 74 75
Wind_Speed
79 72 66 63 62 59 57 53 47 41 38 36 32 28 24 18 15 13 12 13 12 10 10 9 8 8 8 11 15 19 23 26 31 37 40 42 42 43 47 51 54 55 56 58 61 64 67 69 70 71 70 70 70 69 70 71 71 69 69 69 67 65 62 64 69 71 71 70 68 67 67 66 62 61 62 60 55 52 50 53 57 59 58 56 56 57 56
77 71 65 62 61 58 55 51 44 40 38 35 31 27 23 18 14 12 12 13 13 13 14 12 12 13 12 12 15 19 22 26 30 35 38 40 40 40 44 50 53 54 56 57 59 62 64 67 67 67 68 68 68 69 70 71 69 68 68 67 64 62 61 64 69 70 69 68 66 65 63 61 59 60 62 58 55 54 55 57 60 60 59 56 55 54 54
76 69 65 62 60 57 54 49 42 38 37 35 31 27 23 18 13 11 10 11 13 14 15 15 16 18 18 18 19 21 24 27 30 34 37 38 38 39 44 50 53 54 56 57 58 60 62 64 65 66 67 68 68 69 69 69 68 68 68 65 62 62 62 64 67 67 65 63 59 56 56 56 58 62 62 58 57 58 56 56 58 58 57 56 55 56 57
74 68 63 61 59 55 52 46 40 38 37 34 31 26 23 19 14 9 8 10 13 14 16 18 19 21 22 23 24 26 29 31 33 35 37 38 39 40 44 50 53 54 55 56 57 58 60 62 64 65 66 66 67 67 67 67 67 66 64 61 60 62 62 63 66 66 65 63 60 58 59 60 61 62 61 59 58 58 55 53 54 56 57 56 56 57 56
73 66 62 59 57 54 50 44 39 37 36 33 30 26 22 19 15 10 6 8 12 14 17 19 22 23 24 25 27 29 32 34 36 38 39 40 41 42 46 51 53 54 55 56 57 58 59 61 63 63 63 64 65 66 66 65 64 61 58 57 60 62 61 62 65 66 66 64 62 62 63 63 63 62 62 61 59 58 53 50 50 53 55 56 57 58 57
71 64 60 57 55 53 50 44 38 37 35 32 28 25 22 19 16 12 7 7 10 13 16 19 21 23 25 25 26 28 31 33 36 38 39 41 42 45 48 52 54 55 56 57 58 58 59 60 61 61 62 63 64 64 64 63 60 59 58 59 62 61 60 61 64 65 63 61 60 61 62 64 65 64 63 62 60 57 52 49 50 51 53 56 59 60 58
70 63 58 55 53 51 48 43 37 35 33 30 26 24 21 18 16 13 10 8 10 13 15 17 20 22 24 25 26 27 29 31 34 37 39 41 44 47 50 53 55 55 55 56 56 57 57 58 57 59 61 62 61 61 61 59 59 58 59 61 61 60 59 61 63 64 62 60 61 61 61 63 65 64 64 63 61 58 54 52 52 51 51 56 60 59 58
69 62 57 54 52 49 46 41 34 32 31 27 23 21 19 17 16 15 13 10 11 14 16 18 20 21 22 24 25 26 28 31 33 36 38 41 44 47 51 53 54 54 55 55 55 55 56 56 56 57 58 58 59 59 59 58 58 59 59 60 60 60 60 61 62 62 61 59 59 58 58 62 64 64 65 64 62 60 58 57 55 52 52 56 60 58 57
68 61 56 53 50 48 44 38 32 29 29 26 21 19 17 16 15 16 15 14 14 15 17 18 20 22 23 24 25 26 28 30 32 34 36 38 41 44 48 51 52 53 53 54 54 55 56 56 57 56 56 56 57 58 58 59 58 59 59 60 60 61 61 61 61 60 59 57 56 56 59 63 64 63 63 62 60 59 58 57 54 53 54 57 58 59 59
67 60 55 51 48 46 43 37 30 27 27 24 20 17 15 15 15 15 16 16 17 17 19 19 20 22 23 24 25 27 28 29 31 33 35 37 39 42 44 47 49 50 51 52 53 53 54 55 55 55 56 57 58 58 58 58 58 58 59 60 61 61 60 60 60 59 57 56 56 57 60 63 62 60 59 59 58 57 56 55 53 53 55 55 56 58 60
66 59 54 49 47 45 42 37 30 26 25 23 19 15 14 14 15 16 16 18 19 20 20 21 22 22 23 24 25 27 28 29 30 32 34 35 37 39 41 42 44 45 46 47 48 49 51 51 51 52 54 56 57 57 56 55 56 57 58 59 60 60 59 60 59 58 57 57 57 58 59 59 59 58 58 58 58 56 55 53 52 53 53 53 55 58 61
65 58 53 48 45 43 40 36 29 25 23 21 17 13 12 12 14 17 18 19 20 21 21 22 22 23 23 24 24 26 28 29 29 31 32 33 34 36 37 38 39 40 41 43 44 45 47 48 48 50 51 52 53 52 52 53 54 55 57 58 59 58 59 59 59 58 57 57 58 58 56 57 58 59 59 59 57 57 56 54 53 53 52 51 54 58 61
64 57 52 47 44 41 39 35 29 24 21 19 15 10 10 12 14 16 18 20 21 21 22 21 21 21 22 22 23 23 25 27 28 29 30 31 33 33 35 36 36 37 39 41 42 44 45 46 47 48 49 49 49 49 50 53 54 55 56 57 58 59 59 59 58 58 58 57 56 55 55 56 59 60 59 59 58 57 57 55 53 52 50 49 52 57 59
63 56 51 46 42 39 37 34 28 23 20 17 13 8 8 11 13 15 18 19 20 21 21 21 20 20 19 20 20 21 21 23 24 26 27 28 29 31 32 33 34 36 38 39 41 42 44 45 47 48 49 50 50 50 51 53 54 55 56 56 57 58 58 58 58 58 57 56 55 54 54 56 57 59 59 59 58 57 56 54 53 51 50 49 51 55 57
61 55 50 45 41 37 35 33 27 22 18 16 11 6 5 10 13 15 16 18 19 19 20 20 20 19 19 18 18 19 19 20 21 22 23 25 26 28 29 31 32 34 36 38 39 41 42 44 45 47 49 50 51 51 52 53 53 54 55 56 57 57 57 57 58 58 58 58 56 54 54 54 55 57 59 59 58 58 57 56 55 52 51 51 52 54 57
60 54 49 44 40 36 33 31 27 21 16 14 10 5 4 9 13 14 15 17 17 18 19 19 19 19 19 19 18 18 18 19 20 21 22 23 25 26 27 29 31 33 35 36 37 39 40 42 44 46 47 48 49 50 50 51 52 53 55 56 56 57 57 58 58 59 59 58 56 55 54 54 54 56 58 58 58 58 58 57 54 52 51 51 53 55 56
58 53 48 43 39 36 32 29 26 20 15 12 9 4 3 8 12 14 15 15 16 17 17 18 19 18 19 19 19 19 19 19 20 20 21 22 23 24 25 26 28 30 31 33 34 36 37 39 41 42 43 44 44 46 47 48 50 51 52 54 54 55 55 56 57 59 58 56 56 56 55 55 56 56 57 57 57 58 57 55 53 52 51 52 54 55 55
57 51 46 42 39 35 32 28 25 20 14 11 8 3 3 8 11 14 15 15 15 16 16 17 18 18 18 19 19 19 18 19 19 19 20 20 21 22 23 24 25 26 27 28 30 31 33 34 36 37 37 38 39 41 43 45 46 48 50 51 52 52 52 54 55 56 56 55 56 56 55 55 56 56 56 56 56 57 56 53 52 52 53 53 54 54 54
56 50 45 41 37 34 31 28 25 20 14 10 8 3 3 8 11 13 14 15 15 15 15 16 17 17 18 18 18 18 18 17 17 18 19 19 20 21 21 22 23 23 24 25 26 27 29 30 32 32 33 35 37 39 40 42 43 45 47 48 49 50 51 52 54 55 55 56 57 57 56 56 56 56 55 55 56 57 55 53 52 54 54 55 54 54 53
54 49 44 40 36 32 30 27 24 20 15 9 7 3 2 8 12 13 13 14 15 16 15 15 16 17 17 18 18 18 18 17 17 18 18 18 19 20 20 20 21 21 22 23 24 25 26 27 29 30 32 33 34 36 37 39 40 42 44 45 46 47 49 51 52 53 54 55 56 56 56 56 56 56 55 56 57 56 54 53 54 55 56 55 54 53 53
53 47 43 39 35 31 28 26 23 20 15 10 6 3 2 8 12 14 14 14 15 16 16 15 16 17 17 17 17 17 18 18 18 18 18 18 19 20 20 20 20 20 20 21 22 23 24 25 27 27 28 30 31 32 34 36 37 39 40 41 42 44 45 47 48 49 51 52 53 54 55 56 55 55 55 56 57 56 53 51 52 54 55 54 53 53 54
51 46 41 37 34 30 27 25 22 19 15 11 6 3 3 7 12 15 15 16 16 16 17 17 17 17 18 18 18 18 18 18 18 18 18 19 19 20 20 21 21 21 21 21 22 23 24 25 26 26 27 28 29 31 32 32 33 34 35 36 38 39 41 43 45 47 48 48 49 51 52 53 53 53 53 54 54 53 51 50 50 51 52 52 51 52 53
50 44 39 36 33 29 26 23 21 19 15 11 6 3 3 7 10 14 16 17 18 18 17 17 17 18 18 18 18 18 18 18 18 19 19 19 19 20 20 21 22 22 22 22 22 23 24 25 26 26 26 26 27 28 29 29 29 30 32 33 34 34 35 38 40 42 43 44 46 48 49 48 48 49 50 50 49 48 48 49 48 48 49 49 49 51 51
49 43 38 34 31 28 25 22 20 18 15 11 7 3 3 6 9 12 15 16 17 17 17 17 17 17 18 18 18 19 19 19 19 19 19 19 19 20 20 20 20 20 21 22 22 22 22 23 25 26 26 26 26 27 27 27 28 28 28 29 30 30 31 34 35 36 38 41 44 45 44 43 44 45 46 46 45 45 46 47 47 47 47 47 48 49 49
48 42 36 32 29 27 24 21 19 17 14 11 7 4 3 6 8 10 12 14 15 16 16 17 17 17 17 17 18 19 19 19 19 19 19 19 19 20 20 20 20 20 21 22 22 22 22 23 24 25 26 26 27 26 26 26 26 26 26 27 27 27 29 32 33 34 36 38 39 40 39 40 41 42 42 43 43 44 44 45 46 47 48 48 48 49 49
47 41 35 31 28 26 23 20 18 16 14 10 7 4 3 5 8 10 12 14 15 15 16 18 18 18 18 17 17 17 18 19 19 19 20 20 20 20 20 20 21 21 22 22 22 22 23 23 23 24 25 26 26 26 26 26 26 27 28 29 29 29 30 31 33 33 34 35 35 36 36 37 38 39 41 42 43 44 45 45 46 47 48 49 50 50 51
46 40 34 30 26 24 22 19 16 15 13 10 6 3 3 5 9 11 12 14 15 15 16 18 19 19 19 18 18 18 18 19 19 19 19 19 19 20 20 21 21 22 22 22 22 22 23 23 23 24 24 24 25 26 27 27 28 28 29 29 29 30 31 32 32 32 33 34 34 35 36 37 38 40 41 43 43 44 44 45 47 48 48 49 50 51 52
45 39 33 29 26 23 21 19 15 13 12 10 7 4 3 5 9 12 13 13 14 14 15 16 17 17 18 18 19 19 19 19 18 18 18 18 18 19 20 20 21 21 21 21 22 22 23 24 24 25 24 24 25 26 27 28 28 28 29 30 31 32 33 33 32 32 34 35 35 36 37 38 39 40 41 43 43 44 44 45 47 48 48 49 50 51 51
44 38 32 28 25 22 20 18 15 12 11 10 8 5 4 6 9 12 13 14 14 14 14 15 16 16 17 17 18 18 18 18 17 17 17 17 18 19 19 19 19 19 20 20 21 22 23 23 24 25 25 26 26 27 28 29 28 28 29 31 32 32 32 32 33 34 36 37 37 37 38 39 39 40 41 42 43 44 44 45 45 46 46 47 48 48 48
43 38 32 27 24 21 20 18 14 12 11 10 8 6 6 7 9 11 13 15 15 14 15 16 17 18 18 18 17 17 17 17 17 17 17 17 18 18 18 18 18 18 19 20 20 21 22 22 23 24 25 26 27 28 28 28 28 28 29 30 31 32 32 33 33 34 35 36 36 37 38 39 39 40 40 40 40 41 41 41 41 42 43 43 44 44 45
42 37 31 27 23 20 19 18 14 12 10 10 9 7 7 9 11 12 14 15 17 17 18 18 19 19 19 18 16 16 16 17 17 17 17 17 17 17 17 18 18 19 19 20 21 22 22 22 22 23 24 25 26 27 28 27 28 29 30 30 30 31 32 33 34 34 34 34 35 36 37 38 37 37 38 38 37 37 38 38 39 40 41 42 42 43 44
40 36 31 26 23 20 19 17 15 12 10 11 11 8 8 10 13 15 15 16 19 21 21 21 21 21 20 18 16 17 18 17 18 18 18 17 16 16 17 18 18 19 20 21 22 23 23 24 24 24 25 26 26 27 28 28 28 29 29 29 29 29 30 31 32 32 32 33 33 34 35 36 36 35 36 36 36 37 37 38 39 40 41 42 43 44 45
39 35 31 26 23 20 19 18 15 12 11 11 11 10 9 11 14 17 17 18 21 23 23 24 23 23 23 21 18 19 20 19 18 18 18 17 16 16 17 18 18 19 20 22 23 24 24 24 25 26 26 26 27 28 28 29 29 30 29 29 29 29 30 31 31 31 31 32 33 34 34 33 33 34 35 36 36 37 38 39 41 42 42 42 43 44 44
38 34 30 27 23 20 18 18 16 14 12 12 12 12 11 11 14 18 19 21 23 24 25 26 26 25 25 23 21 20 21 20 19 18 16 16 16 16 15 15 17 19 21 22 23 24 24 25 25 26 26 26 26 27 28 29 28 29 28 28 29 29 29 30 30 30 31 32 33 33 32 32 32 33 33 34 35 36 37 38 39 39 39 39 39 39 38
37 33 29 27 23 20 18 18 17 15 13 13 13 13 12 12 15 18 21 22 23 24 25 27 28 28 26 24 22 22 23 21 19 18 16 15 17 17 15 14 17 20 21 22 24 24 24 25 25 25 25 25 26 27 28 27 27 27 27 27 27 27 28 28 29 29 30 30 30 30 29 29 29 29 29 30 30 31 32 33 34 34 35 35 34 34 33
36 32 29 26 23 20 19 19 17 16 14 14 14 14 14 14 15 19 22 24 24 24 25 27 29 29 27 24 23 25 25 24 22 21 19 17 17 16 15 14 16 19 20 22 23 24 24 25 25 24 24 25 25 26 27 27 26 26 27 27 27 27 27 28 28 28 27 27 26 25 24 24 23 23 23 24 25 26 28 29 31 31 31 31 30 30 30
35 31 28 26 23 21 20 19 18 17 15 15 15 16 16 16 16 19 23 25 26 26 26 27 28 29 27 25 25 27 27 27 26 24 23 21 19 18 17 17 16 17 18 20 22 23 23 24 24 24 24 24 25 25 26 26 25 26 26 27 28 28 28 28 28 28 27 26 25 24 23 22 22 21 21 22 24 25 27 28 29 29 29 28 28 28 27
34 31 28 25 24 22 20 19 19 18 17 16 16 17 18 18 18 20 23 25 27 28 28 28 29 29 28 27 28 28 28 28 26 23 22 22 21 19 19 19 18 17 16 18 21 22 22 23 24 24 24 24 24 24 24 25 25 25 26 26 27 28 28 28 28 28 28 27 26 25 24 23 22 22 22 22 24 25 26 27 28 28 28 28 28 28 28
34 30 27 25 24 22 20 20 20 19 18 17 18 19 20 20 20 21 23 25 27 28 29 29 29 30 30 30 30 29 29 29 27 23 22 22 21 20 19 19 19 19 19 19 20 21 21 22 23 24 24 23 24 24 24 24 24 25 25 26 26 27 27 27 27 27 27 26 25 25 24 24 23 22 23 24 25 26 27 28 28 28 28 28 29 29 30
33 30 27 25 24 22 21 21 21 20 19 18 19 20 21 22 22 22 23 24 26 28 30 30 30 31 32 33 32 30 29 29 28 26 24 22 22 22 21 20 20 21 21 21 21 22 22 21 22 23 23 24 24 24 24 24 24 24 24 25 25 25 25 25 25 25 25 24 24 24 24 23 23 23 24 25 26 27 28 29 30 30 30 30 31 32 32
32 29 27 25 24 22 22 21 22 21 20 20 20 21 23 24 24 24 23 24 26 28 29 30 31 31 33 34 34 32 30 29 28 28 27 25 23 23 23 21 21 22 23 23 23 24 23 23 23 23 23 24 24 25 24 24 24 24 24 24 24 24 24 24 24 24 23 23 23 23 23 23 24 25 26 27 28 28 29 30 31 31 32 33 33 34 34
31 28 27 25 24 23 22 22 22 22 22 21 21 22 24 25 26 25 25 25 26 28 29 30 31 31 33 34 35 33 32 30 29 29 28 27 25 25 25 23 23 23 24 25 24 24 24 24 24 24 24 24 24 24 24 24 25 25 25 25 25 25 25 25 24 24 24 24 24 24 25 25 26 26 27 28 28 29 30 31 32 33 33 34 35 35 35
31 28 26 25 24 23 22 22 23 23 22 22 22 23 25 26 27 27 26 27 28 29 30 31 31 31 32 33 34 34 33 32 30 30 30 29 27 27 26 25 24 25 25 26 25 25 24 24 24 24 24 24 23 23 23 24 24 24 25 25 26 26 26 26 26 27 27 27 27 28 28 28 28 28 28 28 29 30 31 32 33 34 35 35 36 36 37
30 27 26 25 24 23 23 23 23 24 24 24 23 24 26 28 28 28 28 28 29 30 31 31 32 32 32 32 33 34 34 33 32 31 31 30 29 29 28 27 27 26 26 27 26 26 26 25 25 25 24 24 24 23 23 23 23 23 23 24 24 24 25 25 26 27 27 27 28 28 28 28 28 28 28 29 29 30 31 32 33 34 35 36 37 38 38
29 27 25 24 24 23 23 24 24 25 26 25 25 26 28 29 29 28 29 30 31 31 31 32 33 33 33 33 33 34 35 35 34 32 32 31 31 31 30 30 29 28 28 28 27 27 26 26 25 25 25 25 24 24 23 23 23 23 23 23 24 24 24 24 25 25 26 26 27 27 27 27 28 28 28 28 29 29 30 31 32 33 34 35 36 37 38
29 27 25 24 24 24 24 24 25 27 28 28 27 27 28 28 28 28 29 30 31 32 33 33 34 34 34 34 34 35 36 36 35 34 33 32 32 32 32 31 31 30 30 29 28 28 27 26 26 25 25 25 25 25 25 24 24 24 24 24 24 24 25 25 25 26 26 27 27 28 28 28 29 29 29 29 29 30 31 31 32 33 34 34 35 36 36
28 27 25 24 24 24 25 26 27 28 29 29 28 27 27 28 29 30 31 31 32 33 34 34 34 35 35 36 36 36 37 37 37 36 35 34 34 34 33 33 32 32 31 30 29 29 28 27 26 26 26 26 26 26 26 26 26 25 26 26 26 26 26 26 26 27 27 28 28 29 29 30 30 30 30 30 31 31 32 32 33 34 35 35 36 36 37
28 27 25 24 24 25 26 27 28 29 29 29 28 28 28 28 30 30 31 31 33 34 35 35 35 35 36 36 36 37 38 38 38 37 37 36 36 35 35 34 34 33 32 31 30 29 29 28 27 27 27 27 27 27 28 28 28 28 28 28 27 27 28 28 28 28 29 29 29 30 31 31 31 31 32 32 32 32 33 33 34 34 35 36 37 38 38
28 26 25 25 25 25 26 27 27 28 29 29 29 29 29 28 29 30 30 31 33 34 35 36 36 36 36 37 37 38 39 39 39 39 39 38 37 37 36 36 35 35 34 33 32 31 30 29 29 28 28 28 28 29 29 29 30 30 30 30 30 30 29 30 30 30 30 31 31 32 32 33 33 33 34 34 35 35 35 36 36 36 37 37 38 39 39
27 27 26 25 25 25 26 27 28 29 30 31 31 31 29 28 29 30 30 31 33 34 36 37 37 37 37 37 38 38 39 40 40 40 40 40 39 39 38 37 37 36 35 35 34 33 32 31 31 30 30 30 30 30 31 31 31 32 32 32 32 32 32 32 32 32 33 33 33 34 34 35 35 36 36 37 38 38 38 39 39 39 40 40 40 41 41
27 27 26 25 25 26 27 28 29 30 32 32 32 32 31 30 30 30 31 31 33 34 35 37 37 37 37 38 39 39 39 40 41 41 41 41 41 40 39 38 38 38 37 36 36 35 34 33 33 32 32 32 32 32 33 33 33 33 34 34 34 34 34 34 35 35 35 36 36 36 37 37 38 39 39 40 40 41 42 42 43 43 43 43 44 44 44
27 26 26 26 26 27 28 28 29 31 32 33 33 33 33 32 31 31 31 31 32 33 35 36 37 38 38 39 39 40 40 40 41 41 42 42 42 42 41 40 40 39 38 38 37 37 36 35 35 35 35 35 35 35 35 35 35 36 36 36 36 36 36 37 37 37 38 38 38 39 39 40 40 41 41 42 43 43 44 45 46 46 46 47 47 48 48
Wind_Direction
348 348 348 349 351 352 353 353 354 357 0 1 360 358 357 360 14 26 39 54 58 65 77 85 100 117 140 161 167 169 170 172 176 181 186 188 189 190 192 192 191 191 193 194 195 195 197 199 201 202 204 205 206 207 209 213 215 216 217 219 220 220 218 217 217 217 216 216 216 217 218 220 220 221 222 222 221 219 219 220 219 219 219 219 219 217 216
349 349 349 350 352 353 354 354 355 359 1 1 359 357 355 357 14 33 47 63 72 79 84 90 101 109 117 133 148 156 159 164 170 177 182 186 187 187 188 190 190 190 191 193 194 195 196 198 200 201 203 204 206 207 210 213 214 215 218 219 220 220 218 216 217 218 218 218 218 219 221 222 220 221 224 224 221 219 218 219 219 218 217 218 219 220 217
349 349 349 350 352 354 354 354 357 1 2 1 359 358 356 355 7 34 54 71 82 91 98 106 114 117 121 128 137 146 152 157 164 172 178 182 183 183 185 188 189 189 190 192 194 195 196 198 199 200 202 203 205 208 210 213 214 215 217 217 218 218 217 215 217 218 220 221 222 224 225 224 221 221 223 223 221 221 220 220 220 218 218 217 218 219 217
350 349 349 350 352 354 355 355 358 3 3 1 360 359 357 353 357 21 58 82 93 103 112 119 123 125 127 132 139 147 152 156 162 168 174 178 179 181 184 186 188 189 189 190 193 195 196 197 199 200 202 203 205 208 210 213 214 216 218 217 217 218 216 214 215 217 218 218 218 220 220 219 219 221 222 222 222 223 222 222 222 220 218 217 219 221 218
350 350 349 350 351 354 356 357 1 4 2 0 0 1 1 358 353 1 42 91 107 116 122 127 129 131 134 139 144 150 155 158 162 167 171 175 177 179 182 185 186 188 189 190 192 194 196 197 199 200 202 203 206 208 210 213 214 215 217 216 217 217 215 213 215 217 217 217 216 216 216 215 216 217 219 220 222 223 223 223 224 223 220 218 219 221 220
350 350 349 350 351 354 356 358 3 5 1 360 1 2 6 8 5 6 32 82 106 118 125 129 132 134 137 141 145 151 157 160 163 166 170 174 176 177 180 183 185 187 189 190 192 194 196 198 199 199 201 204 206 208 210 212 212 213 213 214 215 216 213 213 216 218 219 218 218 219 217 215 215 215 216 218 220 222 223 223 224 223 221 220 221 221 221
350 350 350 350 352 354 356 358 2 5 2 359 1 4 8 18 25 27 39 69 95 110 118 124 128 132 136 140 144 150 156 160 163 166 169 173 175 176 179 182 184 186 189 191 193 194 196 199 200 200 202 203 206 208 210 211 211 211 211 213 214 214 213 213 216 218 219 218 219 219 218 217 216 215 215 217 218 219 219 220 223 222 221 222 222 221 222
350 350 350 351 352 355 356 357 1 5 4 0 3 8 12 25 41 47 50 65 89 105 114 120 125 129 133 138 142 148 154 158 162 165 168 172 175 176 178 181 184 186 188 191 193 195 197 199 201 202 204 205 206 208 209 210 210 210 210 212 213 213 213 214 216 218 219 220 220 220 218 217 217 216 216 217 217 217 217 218 219 219 220 222 222 221 222
349 349 350 351 352 354 356 357 1 7 7 3 4 13 21 32 49 60 66 73 86 99 109 116 122 127 131 135 139 145 150 155 159 162 166 170 174 177 179 181 183 186 188 191 193 195 197 200 201 202 204 206 208 209 210 210 210 209 209 210 211 213 214 215 217 219 220 221 220 219 217 216 216 217 218 218 219 220 221 222 221 219 219 221 221 219 220
349 349 350 351 352 354 355 357 2 8 11 7 5 16 31 44 57 68 77 84 89 96 103 109 115 121 126 131 137 141 146 151 154 158 162 167 172 176 179 181 184 186 189 191 194 195 198 200 202 202 204 206 208 210 210 210 209 209 208 209 211 213 214 216 218 219 220 220 219 217 216 215 215 217 218 219 221 222 224 225 225 225 224 222 221 220 219
348 349 349 350 352 353 354 357 2 9 14 10 8 19 37 53 68 76 83 89 94 97 102 106 111 116 121 127 133 138 142 146 151 155 160 165 170 175 179 182 185 187 189 192 194 196 199 201 202 203 204 207 208 209 210 210 209 209 209 210 212 213 214 217 219 219 219 219 218 217 216 214 214 216 218 219 220 222 224 225 226 228 228 225 223 221 220
348 348 349 350 352 353 354 356 2 10 16 12 8 23 46 62 77 85 89 92 95 98 101 105 110 115 119 124 130 135 139 143 148 153 157 163 168 174 178 182 185 187 189 192 194 197 199 201 203 205 206 208 209 210 209 209 210 210 210 210 212 213 215 217 218 219 218 218 218 217 215 213 213 215 217 218 220 221 223 224 225 227 228 227 225 223 222
347 347 348 349 351 354 354 355 1 10 18 15 8 24 60 76 86 93 96 97 98 100 101 103 107 112 117 121 126 132 137 141 146 152 156 162 167 173 177 181 184 187 190 193 195 197 199 201 203 205 207 209 211 211 210 210 210 210 211 212 212 214 215 217 218 218 218 218 218 217 215 213 213 215 216 217 219 221 223 224 225 227 227 226 226 225 223
346 346 347 348 351 354 354 354 358 7 17 19 10 18 69 91 97 100 102 104 104 105 106 107 109 111 115 121 125 130 136 141 146 151 157 161 167 172 176 180 183 187 190 194 196 198 200 202 203 205 207 209 210 211 211 211 211 211 212 213 213 214 216 216 217 218 218 218 218 217 216 214 214 215 216 217 218 220 222 224 225 227 227 225 225 225 223
345 345 346 347 349 354 354 353 355 4 15 20 14 14 78 103 109 109 109 110 110 110 111 112 114 117 119 124 129 133 138 143 147 152 157 162 167 172 176 181 185 188 192 194 197 199 201 203 205 206 207 208 209 210 210 211 211 212 212 213 213 214 215 216 216 217 217 217 218 217 217 216 216 216 217 218 219 220 221 222 224 226 225 224 223 223 223
344 344 344 345 347 352 355 353 352 360 13 21 17 13 99 117 120 118 116 116 116 116 117 117 119 122 124 126 130 134 139 144 149 154 160 164 169 173 178 182 186 189 192 194 197 199 201 203 205 207 208 208 208 209 209 210 211 211 212 212 212 213 214 214 214 216 217 217 217 218 217 217 217 217 218 219 220 221 223 223 224 225 225 224 223 223 223
343 343 343 343 345 349 354 353 352 356 10 23 23 16 130 132 131 128 124 123 123 122 123 124 125 127 129 130 133 137 141 146 150 154 158 162 166 170 175 180 185 189 191 193 195 198 200 203 205 207 209 208 209 209 209 209 210 211 211 212 212 212 213 213 213 215 217 217 217 218 218 218 218 219 219 220 222 224 225 225 225 225 224 223 223 222 222
342 342 341 341 343 346 351 353 352 355 6 24 29 23 155 146 142 139 133 130 129 128 128 129 130 131 133 135 137 140 143 146 148 150 152 156 161 165 170 175 180 184 187 189 192 194 197 201 204 206 208 208 208 209 209 209 209 210 210 211 212 212 212 212 213 215 216 217 218 218 219 220 221 221 221 221 223 225 226 226 225 224 223 222 222 222 221
341 340 340 340 341 344 348 351 352 355 4 23 32 22 172 159 153 150 144 139 137 135 134 135 136 137 138 139 140 142 142 143 145 147 148 152 157 161 165 170 173 175 179 182 185 188 192 195 198 201 203 204 205 207 208 208 208 209 210 211 211 210 211 211 213 214 215 216 217 218 219 220 222 222 223 223 224 225 225 225 223 221 221 222 221 221 220
340 339 339 338 339 341 346 349 350 353 0 18 33 20 198 173 163 160 156 150 145 142 141 142 143 143 143 144 145 144 143 144 144 145 147 150 154 155 158 164 167 169 173 175 178 182 186 189 192 195 197 200 202 203 205 206 207 208 210 211 211 211 211 211 212 213 214 215 217 217 218 220 222 222 223 224 225 225 224 223 220 219 219 221 221 221 221
339 338 337 337 336 338 343 346 347 350 356 8 25 16 233 191 176 170 168 163 156 151 149 149 150 150 150 150 151 149 147 146 147 147 148 151 153 153 154 158 160 161 166 170 172 176 180 183 186 189 192 195 197 199 202 203 205 206 208 209 210 211 212 212 213 213 213 214 215 217 218 219 221 222 223 224 225 224 222 220 218 218 219 220 221 222 223
338 336 335 335 334 335 339 343 344 346 352 1 12 5 248 210 191 181 178 175 169 163 159 158 157 157 158 158 158 157 155 153 153 153 154 156 156 155 157 159 159 159 162 166 169 172 175 177 179 181 186 190 192 194 197 199 201 203 204 206 208 209 211 212 213 214 214 213 214 216 217 218 219 220 221 223 223 222 219 217 216 218 220 221 223 225 226
337 335 334 333 331 332 335 340 341 343 347 354 1 348 251 225 204 192 187 184 181 176 172 168 165 163 163 163 164 165 164 162 162 162 162 162 161 160 163 166 165 163 164 166 170 174 174 174 175 176 179 183 186 189 191 192 194 196 198 200 202 203 206 210 212 212 212 212 213 214 215 215 216 217 219 220 220 218 216 215 216 218 220 222 224 227 229
335 334 332 331 329 328 331 336 338 340 343 347 354 347 261 238 220 203 195 193 191 187 181 176 172 169 168 169 169 170 171 171 171 171 170 170 168 167 170 172 170 168 168 170 174 176 175 174 176 175 174 176 180 184 185 185 186 189 191 193 193 194 199 204 208 209 209 210 211 213 212 211 211 213 214 215 215 215 215 216 218 219 221 222 224 227 229
334 332 331 329 327 325 327 331 334 336 338 342 349 341 272 244 226 207 194 191 194 195 191 186 181 178 176 175 175 175 176 177 179 178 177 178 178 176 177 178 177 176 176 177 177 177 177 179 179 177 175 176 179 181 182 182 182 182 183 184 185 187 193 198 200 202 204 205 208 210 209 208 209 210 212 214 215 216 217 219 221 222 223 224 226 228 230
332 330 329 328 325 321 322 327 330 332 332 336 340 328 272 233 212 197 187 183 186 193 196 195 192 187 184 183 183 182 181 181 183 183 183 184 185 185 185 185 185 184 184 184 183 181 181 183 183 182 181 180 179 179 181 182 183 182 182 183 184 188 194 197 198 200 201 203 206 209 209 209 211 213 215 217 218 219 220 221 224 225 227 228 230 232 233
330 328 326 325 323 318 317 322 325 325 324 325 325 317 267 222 205 196 190 185 182 184 191 196 197 194 190 189 189 191 191 190 188 188 187 188 189 190 191 193 193 192 191 190 190 188 187 187 188 188 187 186 183 182 184 187 189 188 186 186 189 194 198 199 201 203 204 206 209 211 212 213 215 216 218 220 222 223 224 226 227 229 231 232 234 236 237
328 326 324 323 320 315 312 315 318 318 316 314 309 294 246 219 210 202 195 188 183 183 187 191 193 192 192 192 194 196 199 199 197 195 193 193 194 195 195 196 196 195 194 194 195 195 194 193 193 193 192 191 191 190 191 194 196 196 194 193 196 199 202 203 205 207 209 210 213 215 216 218 219 221 223 224 226 228 229 230 232 234 235 236 237 237 238
326 324 321 320 318 312 308 309 311 310 308 303 295 275 232 218 216 208 198 189 183 181 181 181 181 182 184 189 194 197 198 200 200 201 201 202 204 204 204 201 197 193 192 193 194 197 198 197 197 196 195 196 197 198 200 201 202 203 204 204 205 206 206 207 210 212 214 214 216 219 222 224 225 226 228 229 230 231 232 233 234 235 236 236 236 236 236
324 321 318 316 314 308 303 303 302 301 299 293 286 268 230 216 218 213 202 191 182 177 176 176 175 174 176 182 188 190 192 193 195 196 198 201 205 209 211 210 205 199 195 193 193 194 195 195 195 195 195 196 198 201 204 205 206 209 212 213 213 213 213 213 215 217 218 218 219 221 224 226 226 227 228 229 230 231 231 232 233 233 234 235 235 236 236
322 319 315 313 311 304 298 296 294 292 288 279 273 260 230 217 215 213 206 194 182 175 174 174 173 173 174 176 177 179 183 187 189 189 190 193 198 204 208 210 208 204 202 200 198 196 195 194 193 192 193 195 196 199 200 200 202 207 211 212 213 214 213 213 215 216 216 216 217 219 221 223 224 224 226 227 228 229 230 232 233 234 235 236 237 238 238
320 316 312 309 307 300 293 290 288 284 277 271 267 258 237 221 213 210 206 195 183 177 175 173 173 173 169 165 168 176 180 182 182 182 181 183 187 194 200 202 201 201 202 202 201 200 198 197 196 195 195 196 196 197 198 198 200 204 207 208 210 212 213 213 215 215 215 216 218 220 222 224 225 226 229 231 231 232 233 235 236 237 238 238 239 240 241
319 314 309 306 303 296 289 285 282 277 268 263 263 256 240 224 212 207 204 195 185 179 176 175 175 173 166 164 173 182 180 176 177 179 179 178 179 185 192 195 193 194 197 198 198 199 199 199 200 200 199 199 201 202 202 203 203 205 206 207 209 211 214 216 217 218 219 220 222 224 226 228 228 230 232 234 235 235 236 236 237 238 238 238 238 239 240
317 311 306 302 298 292 285 279 276 271 261 254 254 249 239 225 212 206 203 197 190 183 180 179 179 176 174 177 183 183 178 175 176 176 176 177 178 178 182 186 187 188 191 193 194 195 196 197 199 200 199 200 203 206 207 208 206 204 205 207 209 210 212 214 216 217 219 221 224 226 228 230 232 232 233 234 235 235 235 235 235 235 234 234 233 234 234
315 309 303 298 295 288 281 274 269 266 258 250 247 245 239 227 214 206 201 199 196 191 187 186 185 184 186 188 186 181 178 177 173 170 171 176 179 176 174 180 185 185 187 190 192 193 194 195 196 197 197 197 200 204 208 209 206 201 201 204 206 208 210 212 214 216 218 221 223 225 227 228 229 230 231 231 231 230 230 229 228 226 226 226 226 225 224
314 307 300 295 291 284 276 270 265 262 255 246 242 240 236 228 216 206 200 198 197 195 192 191 190 191 193 191 186 182 181 177 173 172 172 173 176 176 173 177 184 185 186 190 193 193 193 194 194 194 195 197 199 203 207 208 205 201 201 204 206 208 210 211 212 213 213 214 214 215 216 217 219 221 222 223 222 221 221 221 220 220 219 219 218 216 215
312 305 297 292 287 281 273 266 261 258 252 243 237 235 234 227 217 208 202 198 198 198 195 193 193 196 196 192 188 187 187 184 182 181 176 171 174 180 179 175 178 182 185 190 192 192 193 194 194 194 195 198 200 203 206 207 207 207 207 208 209 209 210 209 208 206 204 202 201 202 204 207 209 211 213 214 215 215 216 217 218 216 214 212 210 209 208
310 303 294 288 283 278 272 264 257 253 248 240 233 231 230 226 218 212 206 202 200 200 198 194 194 196 196 193 191 192 192 190 189 187 180 175 178 185 185 178 172 173 180 188 190 190 192 195 195 195 197 199 202 204 206 208 210 211 213 214 214 213 212 210 207 205 202 199 199 200 202 204 205 206 208 209 210 212 212 213 214 212 210 207 206 205 205
308 300 292 285 280 275 269 261 254 249 245 239 232 229 229 226 221 216 212 207 203 202 200 198 197 196 195 193 194 194 194 193 191 188 184 182 183 186 186 181 175 175 179 184 185 187 190 195 197 197 197 199 202 205 207 209 211 212 214 215 216 215 213 210 206 203 201 201 201 203 205 206 206 206 207 207 208 209 209 210 211 210 208 206 205 204 205
306 298 290 283 277 272 265 258 252 247 244 238 231 227 227 227 224 220 215 211 207 206 204 202 200 198 196 194 195 195 195 194 192 191 191 190 188 187 186 185 184 183 183 182 183 185 188 191 195 197 197 198 201 203 205 207 208 210 211 212 212 212 210 207 204 203 202 203 205 207 209 209 208 208 208 208 208 209 209 210 210 210 208 207 206 206 207
303 296 288 281 275 269 262 256 251 246 242 237 231 226 225 226 226 224 219 213 211 210 208 206 204 201 198 197 197 197 196 194 194 194 194 194 192 190 188 189 190 189 186 185 187 189 189 188 189 192 194 196 199 201 202 203 203 204 206 207 207 207 205 205 205 205 206 206 208 211 212 213 212 212 212 213 212 212 212 213 213 212 211 210 210 209 210
300 293 286 279 273 266 261 255 250 245 241 237 232 227 224 225 226 225 220 216 212 210 209 209 207 204 201 201 201 200 198 197 195 193 193 195 195 194 192 192 193 192 191 191 192 194 194 192 191 191 193 195 198 199 200 200 200 202 203 205 205 206 205 205 207 208 209 210 211 214 216 218 219 218 218 218 218 218 218 217 217 217 216 216 215 214 215
297 291 284 277 271 264 259 253 248 244 240 236 232 228 225 224 225 225 222 218 214 211 210 210 209 207 204 203 202 202 201 199 197 194 193 195 197 197 196 196 196 196 197 197 198 199 200 199 197 196 197 198 200 202 202 201 203 204 206 207 209 209 210 210 210 212 213 214 215 217 220 222 224 224 224 224 224 224 224 223 223 223 222 221 221 220 220
294 288 282 275 268 262 256 251 246 242 238 234 231 229 226 224 224 223 222 219 216 214 212 210 210 208 206 204 202 202 202 201 200 198 196 196 198 200 201 201 201 202 202 203 204 204 205 205 204 203 203 204 205 207 207 207 207 208 210 211 213 214 215 215 216 217 219 220 221 223 225 226 228 229 229 229 229 229 230 230 229 229 228 227 227 226 226
291 286 280 273 266 259 253 248 243 240 237 233 230 228 227 226 224 222 220 220 218 217 214 212 210 209 208 206 203 202 202 202 202 201 200 199 201 203 204 206 207 207 208 209 210 211 211 211 210 210 209 210 212 213 213 213 213 214 215 216 217 218 219 220 221 223 225 226 227 228 229 230 232 233 233 233 232 232 233 233 234 234 233 233 232 231 231
288 283 277 270 262 256 251 245 241 238 236 234 231 230 230 230 227 223 221 221 221 219 217 215 213 210 208 207 206 204 204 204 204 203 203 204 205 206 207 208 210 211 212 213 214 215 216 217 217 216 216 216 217 218 219 220 219 220 220 221 223 224 225 226 227 228 229 231 232 233 233 234 235 236 236 236 236 235 235 235 235 235 236 236 236 236 235
285 280 275 267 259 252 247 243 239 236 235 234 232 231 231 230 228 224 221 220 222 222 220 218 216 213 211 210 208 206 206 206 206 206 206 207 209 209 210 211 212 214 215 216 217 218 219 221 221 221 221 221 222 223 224 225 225 226 226 226 228 229 230 231 232 233 234 235 236 237 237 238 238 238 238 239 239 238 237 237 236 236 236 237 237 238 238
282 277 272 264 256 250 246 242 239 237 236 235 232 231 230 229 229 228 224 219 219 222 223 223 220 217 215 213 210 209 208 208 208 208 209 209 211 212 213 213 215 217 218 219 220 221 222 223 224 225 225 225 226 226 227 229 230 231 232 232 233 234 235 236 237 238 239 240 241 241 242 242 242 242 242 242 242 242 242 241 240 239 238 238 238 238 238
278 273 268 262 255 249 245 242 239 237 236 235 232 231 230 229 229 229 227 222 219 220 223 225 224 221 219 217 214 211 210 210 210 210 211 211 212 214 215 216 217 218 220 221 222 224 224 224 225 226 227 228 229 230 230 232 233 234 235 236 237 238 240 241 242 242 243 244 244 245 246 246 246 246 246 246 246 246 245 245 245 244 243 243 242 241 240
275 270 265 260 254 247 243 240 237 234 233 232 231 230 230 229 228 228 228 225 221 219 220 223 225 225 223 221 218 215 213 212 212 212 213 213 214 215 216 217 219 220 221 222 223 225 226 227 227 228 229 231 232 233 234 235 236 237 238 240 241 242 243 244 244 245 246 246 246 246 247 248 248 248 249 249 249 249 249 248 248 248 247 247 247 246 245
271 266 262 258 251 245 241 238 235 232 232 232 231 229 228 228 227 227 228 227 225 222 220 221 224 226 226 224 223 221 218 215 214 214 215 215 216 217 217 218 220 221 223 224 225 226 227 228 230 231 232 233 234 235 236 238 239 240 241 242 243 244 245 246 247 248 248 249 249 249 249 249 250 250 250 251 251 251 251 251 251 251 251 251 251 250 250
268 263 259 255 249 244 240 237 234 232 231 231 231 230 229 228 227 227 227 227 227 225 222 220 221 223 225 226 226 225 223 220 218 218 217 218 218 219 219 220 221 222 223 225 226 227 228 229 230 232 233 234 235 236 237 238 240 241 243 244 245 246 247 248 249 250 251 252 253 253 253 254 254 254 254 254 254 254 254 254 254 254 254 253 253 253 253